DW3072 Weather Reports


Display with metric or nautical units.
time (UTC)temp
F
wind
direction
speed
MPH
gust
MPH
rain 1hr
in
rain 24hr
in
rain mn
in
humidity
%
barometer
mb
20260905042044 68 117 0.0 0.0 0.00 0.02 0.00 94 1011.2
20260905040552 68 117 0.0 0.0 0.00 0.02 0.00 94 1011.2
20260905035043 68 117 0.0 0.0 0.00 0.02 0.02 94 1011.1
20260905033531 68 117 0.0 0.0 0.00 0.02 0.02 94 1011.3
20260905032041 68 117 0.0 0.0 0.00 0.02 0.02 93 1011.2
20260905030533 68 117 0.0 0.0 0.00 0.02 0.02 93 1011.3
20260905025054 69 117 0.0 0.0 0.00 0.03 0.02 93 1011.2
20260905023544 69 117 0.0 0.0 0.00 0.03 0.02 93 1011.3
20260905022034 69 117 0.0 0.0 0.00 0.03 0.02 92 1011.3
20260905020542 69 117 0.0 0.0 0.00 0.03 0.02 92 1011.1
20260905015038 69 117 0.0 0.0 0.00 0.06 0.02 92 1011.2
20260905013530 69 117 0.0 0.0 0.00 0.06 0.02 92 1011.2
20260905012035 70 117 0.0 0.0 0.00 0.06 0.02 91 1011.2
20260905010544 70 117 0.0 0.0 0.00 0.06 0.02 91 1011.3
20260905005104 70 117 0.0 0.0 0.00 0.06 0.02 91 1011.1
20260905003525 70 117 0.0 0.0 0.00 0.06 0.02 90 1011.0
20260905002135 71 117 0.0 0.0 0.00 0.06 0.02 90 1010.8
20260905000541 71 117 0.0 0.0 0.00 0.06 0.02 88 1010.7
20260904235026 71 117 0.0 0.0 0.00 0.06 0.02 87 1010.7
20260904233530 72 117 0.0 0.0 0.00 0.06 0.02 86 1010.7
20260904232039 73 117 0.0 0.0 0.00 0.06 0.02 85 1010.6
20260904230527 74 117 0.0 0.0 0.00 0.06 0.02 83 1010.4
20260904225033 75 117 0.0 0.0 0.00 0.06 0.02 82 1010.4
20260904223540 75 117 0.0 0.0 0.00 0.06 0.02 83 1010.6
20260904222029 76 117 0.0 0.0 0.00 0.06 0.02 81 1010.8
20260904220607 76 117 0.0 0.0 0.00 0.06 0.02 81 1010.9
20260904215052 77 117 0.0 0.0 0.00 0.06 0.02 81 1010.9
20260904213538 77 117 0.0 2.0 0.00 0.06 0.02 80 1010.8
20260904212028 78 159 0.0 0.0 0.00 0.06 0.02 78 1010.5
20260904210538 79 159 0.0 0.0 0.00 0.06 0.02 75 1010.3
20260904205044 80 159 0.0 1.0 0.00 0.06 0.02 69 1010.3
20260904203533 81 159 1.0 4.0 0.00 0.06 0.02 66 1010.4
20260904202026 81 133 0.0 2.0 0.00 0.06 0.02 68 1010.6
20260904200537 81 169 2.0 4.0 0.00 0.06 0.02 66 1010.8
20260904195038 81 159 2.0 5.0 0.00 0.06 0.02 66 1010.8
20260904193526 81 139 1.0 3.0 0.00 0.06 0.02 67 1011.0
20260904192034 81 133 1.0 3.0 0.00 0.06 0.02 66 1011.3
20260904190541 82 333 1.0 3.0 0.00 0.06 0.02 66 1011.3
20260904185043 82 61 1.0 6.0 0.00 0.06 0.02 67 1011.4
20260904183528 82 180 2.0 6.0 0.00 0.06 0.02 65 1011.5
20260904182038 82 116 3.0 6.0 0.00 0.06 0.02 65 1011.5
20260904180549 83 135 1.0 5.0 0.00 0.06 0.02 64 1011.8
20260904175036 84 121 2.0 6.0 0.00 0.06 0.02 62 1011.7
20260904173527 83 319 3.0 6.0 0.00 0.06 0.02 66 1011.6
20260904172037 83 42 1.0 5.0 0.00 0.06 0.02 68 1011.6
20260904170548 83 335 1.0 5.0 0.00 0.06 0.02 70 1011.6
20260904165109 83 149 0.0 6.0 0.00 0.06 0.02 70 1011.7
20260904163552 82 323 2.0 4.0 0.00 0.06 0.02 65 1011.8
20260904162101 82 169 2.0 5.0 0.00 0.06 0.02 67 1012.0
20260904160613 81 150 2.0 5.0 0.00 0.06 0.02 69 1012.0
20260904155029 82 175 1.0 5.0 0.00 0.06 0.02 69 1012.0
20260904153538 81 221 1.0 3.0 0.00 0.06 0.02 70 1011.9
20260904152027 80 107 1.0 4.0 0.00 0.06 0.02 71 1012.1
20260904150528 80 153 1.0 3.0 0.00 0.06 0.02 74 1012.1
20260904145031 81 155 0.0 4.0 0.00 0.06 0.02 74 1012.4
20260904143539 80 29 1.0 5.0 0.00 0.06 0.02 74 1012.3
20260904142031 80 179 2.0 7.0 0.00 0.06 0.02 79 1012.3
20260904140536 79 169 0.0 3.0 0.00 0.06 0.02 83 1012.1
20260904135040 78 24 1.0 3.0 0.00 0.06 0.02 86 1011.9
20260904133528 77 57 1.0 5.0 0.00 0.06 0.02 90 1011.9
20260904132037 76 64 1.0 3.0 0.00 0.06 0.02 94 1012.0
20260904130547 74 21 0.0 1.0 0.00 0.06 0.02 96 1011.9
20260904125029 73 146 0.0 2.0 0.00 0.06 0.02 96 1012.0
20260904123534 72 242 1.0 3.0 0.00 0.06 0.02 96 1012.1
20260904122104 71 125 0.0 1.0 0.00 0.06 0.02 97 1012.2
20260904120541 70 122 0.0 3.0 0.00 0.06 0.02 97 1011.9
20260904115043 69 159 0.0 0.0 0.00 0.06 0.02 97 1012.2
20260904113530 69 159 0.0 0.0 0.00 0.06 0.02 97 1011.9
20260904112037 69 159 0.0 0.0 0.00 0.06 0.02 97 1011.8
20260904110528 69 159 0.0 0.0 0.00 0.06 0.02 97 1011.6
20260904105044 69 279 0.0 0.0 0.00 0.06 0.02 97 1011.4
20260904103535 69 279 0.0 0.0 0.00 0.06 0.02 97 1011.4
20260904102044 69 279 0.0 0.0 0.00 0.06 0.02 97 1011.2
20260904100536 69 279 0.0 0.0 0.00 0.06 0.02 97 1011.1
20260904095039 69 279 0.0 0.0 0.00 0.06 0.02 97 1011.0
20260904093529 69 279 0.0 0.0 0.00 0.06 0.02 97 1011.1
20260904092037 70 279 0.0 0.0 0.00 0.06 0.02 97 1011.1
20260904090526 70 279 0.0 0.0 0.00 0.06 0.02 97 1011.2
20260904085030 70 279 0.0 0.0 0.00 0.07 0.02 97 1011.1
20260904083537 70 279 0.0 0.0 0.00 0.07 0.02 97 1011.1
20260904082028 70 279 0.0 0.0 0.00 0.07 0.02 97 1011.3
20260904080604 70 279 0.0 0.0 0.00 0.07 0.02 97 1011.0
20260904075045 70 279 0.0 0.0 0.00 0.25 0.02 96 1010.9
20260904073533 71 279 0.0 0.0 0.00 0.25 0.02 96 1010.7
20260904072036 71 279 0.0 0.0 0.00 0.25 0.02 96 1010.5
20260904070544 71 279 0.0 0.0 0.00 0.25 0.02 96 1010.4
20260904065043 72 279 0.0 0.0 0.00 0.31 0.02 96 1010.1
20260904063548 72 279 0.0 0.0 0.00 0.31 0.02 97 1010.3
20260904062059 72 279 0.0 1.0 0.00 0.31 0.02 97 1010.4
20260904060526 72 279 0.0 0.0 0.00 0.31 0.02 97 1010.7
20260904055045 72 279 0.0 1.0 0.01 0.49 0.02 97 1010.7
20260904053533 72 279 0.0 0.0 0.02 0.49 0.02 97 1011.0
20260904052041 72 279 0.0 2.0 0.02 0.49 0.02 97 1010.9
20260904050550 73 53 0.0 2.0 0.02 0.49 0.02 97 1010.8
20260904045034 72 7 0.0 0.0 0.01 0.69 0.01 97 1011.7
20260904043542 72 7 0.0 0.0 0.00 0.68 0.00 96 1011.4